Flag for Canada Weather past 2 weeks in Peterborough, Ontario, Canada

Now
63 °F

Light rain. Mostly cloudy.


Feels Like: 63 °F
Forecast: 57 / 76 °F
Wind: 9 mph from West

Location: Peterborough Airport

Current Time: Aug 3, 2015 at 10:03:54 AM

Latest Report: Aug 3, 2015 at 9:00 AM


Visibility: 9 mi

Pressure: 29.69 "Hg

Humidity: 94%

Dew point: 61 °F

Location of PeterboroughLocation

Historic Weather in Peterborough — Graph

°F

Peterborough temperature yesterday

Maximum temperature yesterday: 81 °F (at 2:00 PM)
Minimum temperature yesterday: 52 °F (at 6:00 AM)
Average temperature yesterday: 65 °F

Past Weeks' High & Low Weather Summary

 TemperatureHumidityPressure
High90 °F (Jul 28, 4:00 PM)100% (Jul 20, 5:00 AM)30.03 "Hg (Jul 20, 5:00 AM)
Low48 °F (Jul 24, 5:00 AM)34% (Jul 23, 2:00 PM)29.59 "Hg (Aug 3, 2:00 AM)
Average69 °F74%29.84 "Hg
* Reported Jul 19 9:00 AM — Aug 3 9:00 AM, Peterborough, Weather by CustomWeather, © 2015

Note: Actual official high and low records may vary slightly from our data, if they occured in-between our weather recording intervals... More about our weather records

Advertising

Peterborough weather history for previous 24 hours

 ConditionsComfort  
Time TempWeatherWind HumidityBarometerVisibility
9:00 AM
Mon, Aug 3
63 °FLight rain. Mostly cloudy.9 mph94%29.69 "Hg9 mi
8:00 AM64 °FPartly sunny.7 mph88%29.68 "Hg9 mi
7:00 AM63 °FPassing clouds.6 mph94%29.67 "Hg9 mi
6:00 AM63 °FLight rain. Overcast.7 mph94%29.65 "Hg9 mi
5:53 AM63 °FLight rain. Overcast.7 mph94%29.66 "Hg9 mi
5:00 AM63 °FOvercast.5 mph94%29.63 "Hg9 mi
4:00 AM63 °FLight rain. Overcast.5 mph94%29.62 "Hg9 mi
3:00 AM64 °FLight rain. Overcast.7 mph94%29.61 "Hg9 mi
2:00 AM63 °FLight rain. Mostly cloudy.10 mph100%29.59 "Hg9 mi
1:55 AM63 °FLight rain. Overcast.7 mph100%29.59 "Hg9 mi
1:00 AM61 °FLight rain. Overcast.7 mph100%29.63 "Hg9 mi
12:53 AM61 °FLight rain. Overcast.5 mph100%29.64 "Hg7 mi
12:03 AM61 °FLight rain. Overcast.6 mph94%29.65 "Hg9 mi
11:03 PM
Sun, Aug 2
61 °FStrong thunderstorms. Fog.3 mph94%29.70 "Hg3 mi
10:01 PM63 °FThunderstorms. Mostly cloudy.6 mph94%29.67 "Hg9 mi
9:04 PM61 °FMostly cloudy.6 mph100%29.68 "Hg7 mi
8:00 PM61 °FPartly sunny.2 mph94%29.73 "Hg9 mi
7:00 PM61 °FThundershowers. More clouds than sun.8 mph94%29.74 "Hg9 mi
6:47 PM61 °FThundershowers. Cloudy.9 mph94%29.77 "Hg9 mi
6:01 PM73 °FThunderstorms. Cloudy.10 mph61%29.78 "Hg9 mi
5:00 PM77 °FSunny.10 mph51%29.75 "Hg9 mi
4:00 PM79 °FSunny.15 mph45%29.74 "Hg9 mi
3:00 PM79 °FSunny.12 mph45%29.77 "Hg9 mi
2:00 PM81 °FScattered clouds.13 mph48%29.78 "Hg9 mi
1:00 PM79 °FSunny.9 mph45%29.80 "Hg9 mi
12:00 PM79 °FSunny.9 mph48%29.80 "Hg9 mi
11:00 AM77 °FSunny.7 mph54%29.81 "Hg9 mi
10:00 AM73 °FSunny.7 mph65%29.83 "Hg9 mi
Weather by CustomWeather, © 2015

See weather overviewHow to use our weather pages